Location: Newark
(41.0400°S, 62.7845°W)
Time: 00:00:37
(UTC+00:00)

Vanguard 2 - Pass Details

Date: 09 December 2021
Orbit: 554 x 2935 km, 32.9° (Epoch: 27 January)

Event Time Altitude Azimuth Distance (km) Brightness Sun altitude
Rises 03:57:54 0° 293° (WNW) 6,471 12.0 -26.1°
Reaches altitude 10° 04:02:02 10° 296° (WNW) 5,614 11.7 -26.1°
Maximum altitude 04:19:25 62° 10° (N) 3,132 10.2 -26.0°
Drops below altitude 10° 04:34:28 10° 85° (E) 4,948 11.6 -25.7°
Sets 04:37:50 0° 88° (E) 5,696 12.1 -25.6°
